When you browse on this site, cookies collect data to enhance your experience and personalize the content and advertising you see.
Visit our Privacy Policy to learn more. By continuing to use the site, you agree to this use of cookies and data.
  • In Czech Republic
  • List of Countries
  • For 7 days
  • Water Temperature
  • Weather Map
  • Weather Widgets
  • user-avatar
    Login

    Hourly Weather Porto-Novo

    Today, 6 June, Saturday

    Time Temperature Precipitation Wind Pressure Humidity
    00:00 +28°C° 0 mm 3 mps 758 mmHg 86%
    01:00 +28°C° 0.1 mm 3 mps 758 mmHg 87%
    02:00 +28°C° 0.1 mm 2 mps 758 mmHg 88%
    03:00 +27°C° 0.1 mm 2 mps 758 mmHg 89%
    04:00 +27°C° 0.4 mm 2 mps 758 mmHg 90%
    05:00 +27°C° 0.4 mm 2 mps 759 mmHg 91%
    06:00 +27°C° 0.4 mm 2 mps 759 mmHg 92%
    07:00 +29°C° 0 mm 2 mps 759 mmHg 82%
    08:00 +31°C° 0 mm 2 mps 759 mmHg 73%
    09:00 +34°C° 0 mm 2 mps 760 mmHg 63%
    10:00 +34°C° 0.1 mm 3 mps 759 mmHg 62%
    11:00 +34°C° 0.1 mm 4 mps 759 mmHg 60%
    12:00 +34°C° 0.1 mm 5 mps 759 mmHg 58%
    13:00 +34°C° 0.5 mm 5 mps 758 mmHg 62%
    14:00 +33°C° 0.5 mm 5 mps 758 mmHg 66%
    15:00 +32°C° 0.5 mm 6 mps 757 mmHg 69%
    16:00 +32°C° 0.1 mm 5 mps 757 mmHg 73%
    17:00 +30°C° 0.1 mm 5 mps 758 mmHg 76%
    18:00 +29°C° 0.1 mm 5 mps 758 mmHg 79%
    19:00 +28°C° 0 mm 4 mps 758 mmHg 82%
    20:00 +28°C° 0 mm 4 mps 759 mmHg 84%
    21:00 +28°C° 0 mm 4 mps 759 mmHg 87%
    22:00 +28°C° 0 mm 3 mps 759 mmHg 86%
    23:00 +28°C° 0 mm 3 mps 759 mmHg 86%

    Tomorrow, 7 June, Sunday

    Time Temperature Precipitation Wind Pressure Humidity
    00:00 +27°C° 0 mm 3 mps 760 mmHg 86%
    01:00 +27°C° 0 mm 3 mps 759 mmHg 86%
    02:00 +27°C° 0 mm 3 mps 759 mmHg 87%
    03:00 +27°C° 0 mm 3 mps 758 mmHg 87%
    04:00 +27°C° 0 mm 2 mps 759 mmHg 87%
    05:00 +27°C° 0 mm 2 mps 759 mmHg 87%
    06:00 +27°C° 0 mm 2 mps 759 mmHg 87%
    07:00 +28°C° 0 mm 2 mps 759 mmHg 81%
    08:00 +29°C° 0 mm 3 mps 760 mmHg 75%
    09:00 +31°C° 0 mm 3 mps 760 mmHg 70%
    10:00 +33°C° 0 mm 4 mps 759 mmHg 66%
    11:00 +33°C° 0 mm 4 mps 759 mmHg 62%
    12:00 +34°C° 0 mm 4 mps 759 mmHg 58%
    13:00 +34°C° 0.1 mm 4 mps 758 mmHg 59%
    14:00 +34°C° 0.1 mm 4 mps 757 mmHg 59%
    15:00 +33°C° 0.1 mm 4 mps 757 mmHg 60%
    16:00 +32°C° 0.1 mm 4 mps 757 mmHg 65%
    17:00 +30°C° 0.1 mm 4 mps 757 mmHg 71%
    18:00 +29°C° 0.1 mm 4 mps 757 mmHg 76%
    19:00 +29°C° 0 mm 4 mps 758 mmHg 77%
    20:00 +29°C° 0 mm 4 mps 758 mmHg 79%
    21:00 +29°C° 0 mm 4 mps 759 mmHg 80%
    22:00 +28°C° 0 mm 4 mps 759 mmHg 82%
    23:00 +28°C° 0 mm 3 mps 758 mmHg 84%

    Day after tomorrow, 8 June, Monday

    Time Temperature Precipitation Wind Pressure Humidity
    00:00 +27°C° 0 mm 3 mps 758 mmHg 87%
    01:00 +27°C° 0 mm 2 mps 758 mmHg 88%
    02:00 +27°C° 0 mm 2 mps 758 mmHg 89%
    03:00 +27°C° 0 mm 2 mps 757 mmHg 90%
    04:00 +27°C° 0 mm 2 mps 758 mmHg 90%
    05:00 +27°C° 0 mm 2 mps 758 mmHg 90%
    06:00 +27°C° 0 mm 2 mps 758 mmHg 90%
    07:00 +28°C° 0 mm 3 mps 758 mmHg 83%
    08:00 +30°C° 0 mm 4 mps 759 mmHg 76%
    09:00 +32°C° 0 mm 4 mps 759 mmHg 69%
    10:00 +33°C° 0 mm 4 mps 758 mmHg 66%
    11:00 +34°C° 0 mm 4 mps 758 mmHg 63%
    12:00 +34°C° 0 mm 5 mps 758 mmHg 60%
    13:00 +34°C° 0.1 mm 5 mps 757 mmHg 62%
    14:00 +33°C° 0.1 mm 5 mps 757 mmHg 64%
    15:00 +33°C° 0.1 mm 5 mps 756 mmHg 66%
    16:00 +32°C° 0 mm 5 mps 756 mmHg 70%
    17:00 +30°C° 0 mm 5 mps 757 mmHg 75%
    18:00 +29°C° 0 mm 5 mps 757 mmHg 79%
    19:00 +29°C° 0.1 mm 5 mps 757 mmHg 79%
    20:00 +28°C° 0.1 mm 5 mps 757 mmHg 80%
    21:00 +28°C° 0.1 mm 5 mps 757 mmHg 80%
    22:00 +28°C° 0 mm 4 mps 757 mmHg 81%
    23:00 +28°C° 0 mm 4 mps 757 mmHg 82%

    9 June, Tuesday

    Time Temperature Precipitation Wind Pressure Humidity
    00:00 +28°C° 0 mm 3 mps 757 mmHg 84%
    01:00 +27°C° 0 mm 3 mps 757 mmHg 85%
    02:00 +27°C° 0 mm 3 mps 757 mmHg 86%
    03:00 +27°C° 0 mm 3 mps 757 mmHg 87%
    04:00 +27°C° 0 mm 2 mps 757 mmHg 87%
    05:00 +27°C° 0 mm 2 mps 758 mmHg 88%
    06:00 +27°C° 0 mm 2 mps 758 mmHg 88%
    07:00 +28°C° 0 mm 2 mps 758 mmHg 81%
    08:00 +30°C° 0 mm 2 mps 759 mmHg 74%
    09:00 +31°C° 0 mm 3 mps 759 mmHg 67%
    10:00 +33°C° 0 mm 3 mps 759 mmHg 66%
    11:00 +33°C° 0 mm 4 mps 758 mmHg 64%
    12:00 +34°C° 0 mm 4 mps 758 mmHg 62%
    13:00 +34°C° 0 mm 5 mps 757 mmHg 61%
    14:00 +34°C° 0 mm 5 mps 757 mmHg 61%
    15:00 +34°C° 0 mm 5 mps 756 mmHg 61%
    16:00 +32°C° 0 mm 5 mps 756 mmHg 66%
    17:00 +30°C° 0 mm 4 mps 756 mmHg 72%
    18:00 +29°C° 0 mm 4 mps 757 mmHg 78%
    19:00 +28°C° 0 mm 4 mps 757 mmHg 80%
    20:00 +28°C° 0 mm 3 mps 758 mmHg 83%
    21:00 +28°C° 0 mm 3 mps 759 mmHg 86%
    22:00 +27°C° 0 mm 3 mps 759 mmHg 86%
    23:00 +27°C° 0 mm 3 mps 758 mmHg 87%

    10 June, Wednesday

    Time Temperature Precipitation Wind Pressure Humidity
    00:00 +27°C° 0 mm 3 mps 758 mmHg 87%
    01:00 +27°C° 0 mm 3 mps 758 mmHg 87%
    02:00 +27°C° 0 mm 3 mps 757 mmHg 87%
    03:00 +27°C° 0 mm 4 mps 757 mmHg 86%
    04:00 +27°C° 0 mm 3 mps 757 mmHg 87%
    05:00 +27°C° 0 mm 2 mps 758 mmHg 87%
    06:00 +27°C° 0 mm 2 mps 758 mmHg 88%
    07:00 +29°C° 0.1 mm 2 mps 758 mmHg 81%
    08:00 +30°C° 0.1 mm 2 mps 759 mmHg 74%
    09:00 +31°C° 0.1 mm 3 mps 760 mmHg 67%
    10:00 +33°C° 0 mm 3 mps 759 mmHg 63%
    11:00 +34°C° 0 mm 4 mps 759 mmHg 60%
    12:00 +35°C° 0 mm 4 mps 759 mmHg 56%
    13:00 +34°C° 0 mm 5 mps 758 mmHg 59%
    14:00 +34°C° 0 mm 5 mps 758 mmHg 61%
    15:00 +33°C° 0 mm 6 mps 757 mmHg 64%
    16:00 +32°C° 0 mm 6 mps 757 mmHg 68%
    17:00 +30°C° 0 mm 5 mps 757 mmHg 72%
    18:00 +29°C° 0 mm 5 mps 757 mmHg 77%
    19:00 +28°C° 0 mm 4 mps 757 mmHg 79%
    20:00 +28°C° 0 mm 3 mps 758 mmHg 82%
    21:00 +27°C° 0 mm 2 mps 758 mmHg 85%
    22:00 +27°C° 0 mm 2 mps 758 mmHg 86%
    23:00 +27°C° 0 mm 2 mps 758 mmHg 86%

    11 June, Thursday

    Time Temperature Precipitation Wind Pressure Humidity
    00:00 +27°C° 0 mm 2 mps 758 mmHg 87%
    01:00 +27°C° 0.1 mm 2 mps 758 mmHg 87%
    02:00 +27°C° 0.1 mm 2 mps 758 mmHg 86%
    03:00 +27°C° 0.1 mm 1 mps 758 mmHg 86%
    04:00 +27°C° 0 mm 1 mps 758 mmHg 86%
    05:00 +27°C° 0 mm 1 mps 758 mmHg 87%
    06:00 +27°C° 0 mm 1 mps 758 mmHg 87%
    07:00 +29°C° 0 mm 2 mps 759 mmHg 80%
    08:00 +30°C° 0 mm 2 mps 759 mmHg 72%
    09:00 +33°C° 0 mm 3 mps 759 mmHg 65%
    10:00 +33°C° 0 mm 3 mps 759 mmHg 63%
    11:00 +34°C° 0 mm 4 mps 758 mmHg 61%
    12:00 +34°C° 0 mm 4 mps 758 mmHg 59%
    13:00 +34°C° 0.1 mm 4 mps 757 mmHg 60%
    14:00 +34°C° 0.1 mm 5 mps 757 mmHg 61%
    15:00 +33°C° 0.1 mm 5 mps 756 mmHg 63%
    16:00 +32°C° 0 mm 4 mps 756 mmHg 68%
    17:00 +30°C° 0 mm 4 mps 756 mmHg 73%
    18:00 +29°C° 0 mm 4 mps 756 mmHg 78%
    19:00 +29°C° 0 mm 4 mps 757 mmHg 81%
    20:00 +28°C° 0 mm 4 mps 757 mmHg 83%
    21:00 +28°C° 0 mm 4 mps 758 mmHg 86%
    22:00 +28°C° 0 mm 4 mps 758 mmHg 86%
    23:00 +28°C° 0 mm 4 mps 758 mmHg 86%
    Show more